CAPE
0 0 0 0 0 0 0 0 0 1 0 0 0 0 0 0 0 0 4 0 0 0 0 0 0 3 4 0 12 126 330 262 326 616 626 671 883 832 1279 1313 1344 1517 1921 2201 2348 2320 2707 2396 2651 2623 2544 2909 2881 2848 3089 3179 3159 3184 3001 2775 2494 2933 2728 2742 2532 2640 2558 2865 2795 2582 2852 3127 2933 2772 2342 2898 2690 2277 2034 2014 2897 3295 3340 3028 2805 2694
0 0 0 0 0 0 0 0 0 2 0 0 0 0 0 0 0 0 0 0 0 0 0 0 0 0 0 0 0 0 92 234 314 561 576 836 771 920 1303 1581 1758 1710 2200 2331 2213 2601 2689 2427 2814 2596 2714 2989 3010 2896 3042 2994 3008 3047 2741 2680 2520 2904 2483 2447 2487 3098 2739 2707 2482 2254 2385 2812 2388 2502 2614 2638 2596 2035 2264 2118 2566 3376 3463 3273 2946 2569
0 0 0 0 0 0 0 0 0 0 0 6 0 1 0 0 0 1 0 0 0 0 0 0 0 0 0 0 0 0 12 43 287 185 508 881 811 904 1253 1676 1883 1944 2294 2378 2233 2606 2612 2448 2577 2508 2817 2783 3000 2886 2822 2824 2893 2682 2727 2594 2635 2765 2543 2730 2766 2945 2965 2802 3193 1994 2038 2288 2002 1629 1868 1870 2022 2467 2088 2082 2512 2995 2960 3109 2914 2660
0 0 0 0 0 0 0 0 0 0 0 0 1 0 0 0 0 7 2 0 0 0 7 1 2 0 0 0 0 0 0 0 93 283 568 630 634 856 830 1307 1758 1902 2319 2269 2294 2569 2618 2234 2281 2260 2639 2581 2872 2838 2752 2838 2798 2724 2942 2886 2786 2723 2679 2583 3187 2839 3150 3125 2971 2470 2238 2126 1451 1691 2617 1672 1411 2352 1945 2202 2651 2774 2510 2652 2737 2707
0 0 0 0 0 0 0 0 0 0 0 0 0 1 1 1 3 3 8 1 0 0 17 4 0 0 0 3 4 0 2 0 4 343 686 664 669 874 830 1236 1672 1942 2100 2237 2083 2355 2524 2144 2188 2014 2395 2571 2707 2749 2732 2825 2752 2858 2863 2963 2658 2658 3018 2842 3504 3192 3248 3367 3084 2539 1741 2119 2040 1232 791 374 209 504 832 838 1721 2189 2162 2050 1111 523
0 0 0 0 0 0 0 0 0 0 0 0 0 0 1 4 8 3 28 10 3 3 0 3 1 11 0 5 17 0 6 10 6 54 584 589 710 759 974 1325 1438 1902 1987 2169 2166 2256 2303 2172 2135 2039 2414 2520 2688 2706 2675 2836 2669 2849 2712 3030 2360 3155 3141 2952 3392 2806 2924 3179 2352 1997 1422 1460 514 391 679 31 82 251 106 153 135 439 500 658 422 503
0 0 0 0 0 0 0 0 0 0 0 0 0 0 0 0 0 5 6 0 0 10 0 2 0 88 28 9 40 364 44 9 8 5 542 494 699 775 1024 1360 1478 1964 1974 2007 1952 2018 2216 2262 2270 2112 2175 2503 2641 2604 2642 2771 2670 2836 2824 2961 2839 3366 3095 3067 2928 2718 3205 2135 2166 1399 978 893 836 872 535 463 496 293 544 270 42 601 363 627 466 609
0 0 0 0 0 0 0 0 0 0 0 0 0 0 0 0 0 2 3 3 2 2 0 3 2 102 24 10 40 479 408 454 213 0 358 434 597 730 904 1179 1517 2016 1802 1759 1846 1943 2154 2243 2257 2214 2158 2290 2509 2591 2516 2742 2672 2790 2859 2991 3240 3209 3180 2758 2802 2685 2548 1387 1370 73 449 820 444 1023 568 61 325 590 1759 235 385 522 519 376 319 338
0 0 0 0 0 0 0 0 0 0 0 0 0 0 0 0 0 1 12 10 16 5 2 0 25 72 7 18 142 287 153 166 113 57 23 90 402 527 759 1094 1327 1775 1658 1405 1874 1900 1673 1877 2152 2065 2077 2145 2318 2576 2388 2640 2684 2907 2666 3201 3074 3224 3005 2638 2408 1312 1128 438 1153 1073 817 841 988 952 614 859 635 489 403 208 295 519 664 323 327 825
0 0 0 0 0 0 0 0 0 0 0 0 0 0 0 0 0 0 0 20 20 24 16 1 5 22 71 207 157 144 95 66 96 53 6 84 123 137 169 878 862 1286 1366 1232 1665 1694 1363 1509 1701 1662 1846 1985 2056 2392 2335 2585 2706 2922 2631 3081 3021 3075 2801 2224 990 437 738 1013 527 130 278 372 602 410 618 3 254 1342 457 99 212 1146 972 460 400 380
0 0 0 0 0 0 0 0 0 0 0 0 0 0 0 0 0 0 0 0 0 0 2 3 9 7 234 160 111 182 59 161 84 57 29 29 32 27 12 445 648 918 1025 1036 1276 1381 1267 1360 1574 1658 1847 1808 1906 2086 2468 2679 2810 2761 2870 2847 2624 2679 2236 1510 703 430 192 124 533 87 145 545 362 406 71 171 227 535 123 133 466 413 302 66 114 800
0 0 0 0 0 0 0 0 0 0 0 0 0 0 0 0 0 0 0 0 0 0 0 0 0 0 0 266 130 91 120 124 95 66 58 103 49 40 14 86 268 856 905 887 897 994 1107 1306 1503 1667 1730 1495 1876 2135 2604 2834 2801 2716 2723 2344 2072 1840 1679 1224 796 392 273 193 426 376 218 181 28 10 176 83 178 737 725 870 343 571 95 33 427 262
0 0 0 0 0 0 0 0 0 0 0 0 0 0 0 17 0 0 0 0 0 0 0 0 0 0 0 52 284 172 152 70 114 74 48 42 98 58 32 18 90 844 852 738 678 772 1030 1281 1507 1543 1638 1344 2223 2390 2590 2851 2770 2662 2422 2193 2110 1883 1540 708 812 613 524 246 259 240 0 240 42 97 109 163 121 924 258 205 206 237 230 606 203 240
0 0 0 0 0 0 0 0 0 0 0 0 0 0 0 0 0 0 0 0 0 0 0 0 0 0 0 1 133 264 138 144 110 97 58 35 46 40 68 36 152 575 697 464 694 810 920 1124 1538 1418 1505 1347 2266 2440 2655 2769 2689 2499 2332 2129 1904 1533 711 849 849 630 591 466 60 254 199 128 103 37 387 418 70 1259 502 209 83 70 130 229 197 460
0 0 0 0 0 0 0 0 0 0 0 0 0 0 0 0 2 0 0 0 0 0 0 0 0 0 0 0 23 170 147 119 101 54 66 71 99 24 52 76 281 330 262 209 628 867 808 848 1273 1402 1402 1289 2241 2411 2664 2756 2604 2433 2243 1992 1617 1065 805 889 768 865 429 432 231 186 200 303 128 520 0 130 561 16 420 292 163 247 171 169 326 296
0 0 0 0 0 0 0 0 0 0 0 0 0 0 0 0 0 0 0 0 2 6 0 0 0 0 0 0 36 2 97 120 106 50 36 49 154 38 60 109 210 199 108 74 293 903 805 799 1067 1255 1402 1265 2244 2356 2610 2728 2592 2415 2228 1939 1564 897 878 822 670 834 315 400 365 139 192 188 369 1092 667 878 1024 193 19 207 14 111 98 78 126 435
0 0 0 0 0 0 0 0 0 0 0 0 0 0 0 0 0 0 4 0 2 0 1 3 0 2 4 0 2 25 95 103 79 28 40 30 60 122 179 131 58 117 73 56 181 855 934 895 971 1097 1281 1376 2105 2241 2480 2636 2596 2456 2258 1990 1576 818 900 778 615 770 293 374 294 79 194 344 586 301 90 155 288 62 20 388 116 5 0 268 314 96
0 0 0 0 0 0 0 0 0 0 0 0 0 0 0 0 0 9 2 14 1 1 3 0 1 2 0 0 0 8 83 27 28 0 26 62 74 43 77 169 33 58 132 99 182 647 1049 960 913 1058 1209 1468 1960 2104 2350 2628 2542 2400 2236 2011 1613 823 960 871 709 106 313 376 210 220 234 319 394 77 144 157 258 153 319 182 3 1 99 282 436 320
0 0 0 0 0 0 0 0 0 0 0 0 0 0 0 0 0 0 0 0 2 2 0 0 1 2 6 9 4 3 19 22 0 0 76 67 98 49 49 40 146 156 357 253 272 911 1079 982 857 1142 1321 1562 1749 2057 2187 2532 2460 2347 2181 1936 1516 922 1028 798 606 22 374 295 333 385 266 198 267 164 227 170 289 159 13 0 27 91 108 121 0 75
0 0 0 0 0 0 0 0 0 0 0 0 0 0 0 0 0 7 0 20 0 1 0 0 0 0 10 4 18 6 4 3 10 2 12 67 213 126 164 104 140 324 535 490 461 900 1148 990 891 1132 1459 1585 1714 1968 2110 2332 2296 2210 2084 1862 1489 1032 1004 696 620 238 227 270 411 622 495 363 135 138 165 271 146 60 0 1 0 0 36 12 210 204
0 0 0 0 0 0 0 0 0 0 0 0 0 0 0 0 0 0 2 1 0 0 0 9 28 4 0 47 5 8 7 14 15 23 8 0 26 51 187 269 138 460 555 566 577 802 1309 1045 939 1160 1403 1570 1711 1979 2064 2178 2122 2064 1934 1752 1499 1103 936 634 327 500 157 373 332 620 514 432 204 160 167 214 168 2 0 0 16 2 0 31 31 81
0 0 0 0 0 0 0 0 0 0 0 0 0 0 0 0 0 0 0 0 0 0 2 0 9 0 2 2 5 2 0 16 18 30 12 0 0 53 154 439 411 666 590 571 699 1000 1322 1279 1116 1312 1594 1496 1673 1953 2059 2047 1896 1806 1722 1600 1429 1149 864 667 335 727 351 397 439 389 324 201 144 199 190 166 76 152 7 0 0 8 114 83 95 172
0 0 0 4 0 0 0 0 0 0 0 0 0 0 0 0 0 1 2 0 0 0 0 0 3 1 0 168 1 0 0 1 13 3 20 16 0 141 402 470 615 732 671 651 649 1088 1314 1424 1512 1494 1679 1722 1802 1834 1979 1964 1779 1667 1560 1443 1337 1188 888 594 551 684 559 294 395 277 152 159 58 102 163 125 182 46 50 26 1 18 63 33 22 147
184 0 0 4 0 0 0 0 0 0 0 0 0 0 0 0 0 0 2 27 2 41 0 2 3 3 8 53 3 4 0 0 0 0 0 34 0 44 425 462 601 776 710 708 565 744 1152 1408 1646 1688 1682 1723 1845 1868 1831 1830 1697 1587 1486 1399 1304 1214 1016 626 766 760 573 433 458 424 238 348 270 239 201 197 218 175 97 51 7 29 29 81 75 48
0 0 2 37 12 0 0 0 0 0 0 0 0 0 0 0 0 0 1 71 0 11 2 4 6 5 14 109 27 0 4 0 0 0 0 3 14 146 686 523 559 896 834 683 625 506 585 1094 1608 1660 1828 1806 1740 1811 1783 1725 1625 1506 1450 1358 1301 1226 1024 730 839 733 478 431 540 525 352 408 492 403 292 276 246 235 112 18 1 113 130 34 10 7
0 279 0 0 4 6 0 0 0 0 0 0 0 0 0 0 0 0 0 6 0 23 8 30 18 7 4 446 0 0 0 4 0 0 10 18 0 0 378 1613 1072 1245 1215 954 809 720 619 776 1414 1542 1679 1984 2013 1909 1726 1651 1595 1531 1437 1388 1293 1182 967 697 828 743 565 393 424 406 342 365 464 339 304 197 109 71 28 7 23 0 10 27 70 107
0 84 6 20 9 4 0 5 6 0 0 0 0 0 0 0 0 0 0 0 0 56 0 0 58 3 96 34 0 4 0 0 49 8 19 0 0 0 0 1542 1643 1498 1422 1219 988 801 784 788 1368 1826 1682 1724 2063 2086 1933 1762 1643 1577 1480 1360 1255 1155 937 731 819 793 639 428 226 249 277 378 277 375 276 251 160 62 33 64 1 4 1 7 9 2
89 5 14 10 20 74 226 259 52 5 0 0 0 0 0 0 0 0 0 0 0 0 0 45 124 65 20 12 3 16 0 6 16 18 54 23 100 124 1 640 2736 1687 1674 1338 1632 1327 943 922 1270 1864 1991 1795 1688 1964 2062 1934 1758 1585 1444 1364 1248 1122 989 748 798 801 629 516 446 289 303 278 346 325 290 274 259 235 161 59 68 57 81 99 1 3
226 44 107 32 156 155 21 26 31 27 21 19 15 15 6 0 0 0 15 73 133 0 0 0 98 69 2 4 8 42 139 7 0 4 12 21 223 126 235 109 2249 2479 2331 2046 1969 2408 1324 1124 1305 1764 2096 2072 1845 1597 1558 1609 1638 1545 1440 1393 1296 1163 1073 858 667 752 672 629 535 422 410 338 421 285 505 551 480 383 226 100 122 103 56 22 99 172
0 6 11 6 12 23 38 44 29 32 34 38 24 20 12 10 9 1 0 0 85 114 29 142 138 167 94 13 5 4 121 77 70 3 0 0 47 253 745 395 251 1949 2470 2481 2354 2561 2081 1542 1487 1672 2058 2120 2074 1900 1748 1642 1565 1445 1392 1281 1065 866 901 937 528 662 641 527 646 573 391 424 475 411 501 476 398 326 147 85 144 199 184 206 248 192
0 161 0 0 0 6 5 18 27 30 41 25 17 7 4 0 5 2 0 1 10 11 328 309 183 70 153 120 64 215 261 16 104 4 11 181 113 99 38 18 72 158 768 2635 3226 2730 2592 2289 1846 1693 1918 2149 2015 1903 1842 1712 1590 1536 1550 1310 889 893 838 802 575 614 561 535 516 450 651 691 773 671 601 454 291 279 228 233 302 291 230 229 304 338
0 69 1 6 7 1 2 6 21 37 28 10 0 4 6 9 8 2 12 17 9 1 2 549 180 166 233 188 327 228 64 21 43 8 10 12 28 411 720 467 440 530 375 514 3023 2897 2519 2569 2612 2282 2017 2073 2206 2037 1725 1705 1660 1674 1458 1168 907 659 533 597 572 607 558 573 551 319 352 406 592 617 553 474 405 406 267 264 308 329 406 413 473 457
3 2 7 1 3 0 4 0 0 0 5 4 0 12 20 22 15 23 24 30 23 8 0 176 357 330 323 230 258 314 105 31 74 137 465 4 34 141 130 179 231 178 239 364 2065 2526 2689 2529 2644 2779 2520 2203 2163 2248 2066 1947 1970 1817 1552 1161 750 358 424 571 610 649 649 618 305 495 238 247 535 479 508 453 429 428 422 431 414 400 418 520 548 589
8 44 14 0 1 0 1 0 0 0 7 14 110 16 36 53 26 8 25 43 56 347 411 71 216 174 132 98 103 164 103 0 0 0 0 23 167 58 50 81 111 66 68 204 273 2185 2646 2638 2506 2508 2656 2444 2277 2182 2147 2092 1945 1834 1598 1215 982 609 471 558 503 540 432 284 361 786 532 567 584 535 547 530 584 533 542 528 475 448 520 555 635 655
126 38 83 61 6 2 129 173 14 4 28 81 9 10 6 16 0 1 10 63 27 124 262 266 278 57 26 26 200 166 96 55 33 153 38 140 254 318 412 394 367 366 365 213 113 100 1269 2607 2340 2246 2191 2648 2339 2052 1938 1875 1889 1751 1533 1328 1093 764 552 452 508 429 490 331 390 833 926 775 659 714 626 680 668 682 611 592 591 663 698 692 630 653
5 1 38 2 20 38 25 36 3 5 261 70 0 0 15 0 0 117 8 350 125 33 160 16 212 121 283 346 236 42 0 1 307 230 10 0 0 4 0 10 13 114 84 40 43 43 27 1937 2847 2718 2701 2568 2412 2088 1912 1759 1569 1452 1374 1270 1171 834 720 572 395 196 320 561 923 1146 926 855 770 765 755 751 720 673 640 624 637 638 674 833 877 816
12 423 46 42 25 13 12 14 1 555 7 42 56 108 11 3 156 290 22 92 78 36 42 208 169 279 238 155 342 145 11 0 0 3 0 4 25 18 0 0 0 0 80 661 480 686 1410 2706 3122 3168 2864 2490 2143 1950 1909 1712 1532 1405 1301 1222 1137 879 380 314 181 158 268 604 1238 1322 1018 850 809 754 729 677 689 654 671 675 660 672 982 1099 917 709
53 35 254 3 372 89 70 37 3 0 0 34 25 263 37 24 19 164 179 262 365 444 442 478 46 2 56 34 118 69 0 0 0 1 67 131 0 3 2 2 69 44 19 1818 1674 1690 2611 4530 3530 3325 2709 2639 2394 2040 1609 1582 1579 1492 1471 1327 1208 978 864 792 336 271 251 472 1231 1359 1252 1017 851 782 709 660 616 620 619 678 834 965 1264 920 665 536
102 52 78 1 428 0 13 0 2 3 175 296 389 106 163 97 120 410 112 167 150 116 494 42 208 25 122 22 64 57 0 13 40 0 1 0 0 0 19 15 177 981 1261 1320 1571 2294 2681 3094 3114 2625 2798 2578 1958 1692 1487 1428 1202 1163 1166 1122 703 952 892 632 265 332 219 607 1114 1389 1354 1172 965 829 698 572 508 488 512 548 717 960 1109 672 480 466
17 266 18 9 81 89 60 22 14 2 42 343 143 114 48 37 28 120 124 133 28 521 604 306 491 687 27 6 20 13 0 2 0 18 30 0 30 28 563 470 917 1358 1506 1258 1781 2103 2408 2681 2576 2749 2561 2468 2194 2007 1636 1004 930 1014 1314 1098 871 724 638 488 449 307 379 874 1183 1393 1430 1296 1083 907 768 552 413 428 447 533 624 579 784 653 561 337
9 20 4 196 0 21 18 14 25 17 269 467 19 42 12 46 52 37 36 535 291 818 119 61 143 15 31 20 26 233 112 86 65 1 0 88 312 179 692 625 456 68 70 1557 1933 2334 2288 2468 2313 2301 2123 2105 2152 2078 1878 1660 1508 1239 983 932 849 556 568 618 570 330 782 1145 1185 1281 1376 1329 1162 1033 844 616 516 486 707 618 445 336 279 217 220 393
14 4 36 17 74 2 0 0 3 12 1213 43 13 322 190 0 2 64 344 736 847 112 368 62 57 29 445 441 265 127 44 4 24 127 181 164 685 619 773 1639 1325 900 2018 1590 1557 1698 2049 2284 2562 2233 2065 1926 1698 1547 1802 1712 1005 690 404 99 0 287 354 408 699 1034 1027 1148 1003 1046 1274 1182 1062 909 720 670 633 572 496 550 419 258 274 284 422 552
32 25 18 75 92 18 5 26 25 0 678 530 4 347 647 854 646 480 792 364 408 209 326 246 485 484 366 38 417 338 256 226 342 482 385 152 738 1400 1861 2208 2790 2381 1703 1612 1734 2001 2132 2299 2227 1676 1522 1418 1324 1544 1573 1451 1070 622 282 141 299 591 932 473 560 740 909 1106 1136 1119 1128 1159 956 691 689 750 610 582 410 307 296 294 279 116 201 384
493 251 12 232 266 400 82 146 103 378 670 269 321 552 646 764 393 428 1138 325 249 247 299 38 341 537 456 492 455 26 443 78 386 296 164 76 552 1069 1643 2228 2496 2426 2314 2313 2424 2722 2833 2741 1748 1445 1335 1229 1428 1540 1497 1137 706 458 769 1329 1510 1449 1284 1073 1294 1554 1571 1734 1699 1506 1367 1203 1093 941 588 673 629 405 335 324 349 319 305 296 74 272
427 755 612 288 162 558 744 655 673 101 60 103 211 399 350 515 1092 719 64 46 35 79 121 84 347 21 479 34 27 208 125 180 198 38 185 1318 1974 1663 1379 1779 2322 2257 2152 2054 2113 2166 2072 1612 1203 867 1014 1111 1186 1456 1234 819 1100 1716 1470 1669 1760 1111 875 907 926 1017 1013 944 910 956 943 851 762 638 604 414 360 274 351 361 349 323 344 278 113 265
952 764 843 806 650 842 871 898 306 88 38 12 16 204 293 358 210 369 388 332 15 56 56 64 167 57 31 21 15 10 126 246 90 70 724 2057 1843 1573 1197 904 1500 1880 1850 1824 1904 1828 1702 1362 1039 781 723 845 752 1053 1065 1132 2037 1684 1952 1954 1595 1407 1317 1121 1173 1196 988 651 654 701 766 682 564 518 442 394 396 407 413 451 442 453 421 438 473 548
220 184 349 872 549 367 136 501 590 124 52 34 13 4 0 0 346 379 422 398 346 229 33 18 7 27 22 904 1320 1331 1263 1214 1645 2055 2165 1986 1844 1716 1719 1653 1684 1553 1591 1591 1551 1492 1379 1177 1129 1204 1244 1240 1148 1321 1400 1755 1884 1771 2017 1986 1744 1457 1029 977 1071 1065 617 366 496 584 652 684 664 614 574 522 502 516 514 327 44 1 514 942 912 714
484 403 203 354 388 198 337 401 43 31 66 107 58 39 15 32 5 312 243 238 250 268 236 112 37 86 587 1093 1342 1327 1465 1649 1606 2108 2109 1743 1651 1852 1996 1952 1887 1828 1346 1275 1388 1395 1572 1532 1515 1629 1688 1531 1366 1252 1018 855 634 788 1712 1978 1808 1524 1236 1148 1275 984 645 597 544 554 611 651 924 722 594 479 305 263 276 91 133 425 479 535 221 195
500 1136 488 63 68 55 423 46 71 51 34 16 9 84 52 16 28 17 7 40 118 100 49 36 219 374 619 1284 1689 1736 1657 1741 2156 1966 1797 1657 1684 1519 1354 1290 1353 1164 1184 1149 1127 1283 1439 1544 1487 1370 1315 1164 1037 1023 975 913 791 493 876 1353 1311 1322 1416 1371 1475 1167 970 684 516 498 712 666 958 518 407 377 386 416 266 66 311 10 13 0 9 0
291 334 98 85 83 96 95 92 326 232 71 38 36 21 13 24 15 16 22 3 2 6 0 0 3 155 412 1044 1514 1718 1611 1667 1866 1921 1689 1705 1655 1432 1244 1214 1322 1289 1172 923 1050 1260 1190 1198 1175 1631 1629 1399 1241 887 701 774 633 680 1199 1388 1622 1958 1636 1463 1249 1174 937 790 727 732 747 496 476 485 414 342 130 0 0 1 0 0 0 0 0 0
1117 970 808 91 84 81 62 480 791 87 478 42 41 56 40 9 22 245 8 0 0 0 0 0 2 32 135 227 1768 1946 1866 1523 1045 1974 1870 1968 1696 1446 1275 1334 1410 1319 1213 826 819 853 974 1143 1592 1393 834 624 594 622 570 388 279 346 781 1498 1697 2148 2228 1908 1341 1218 1146 1001 798 622 522 505 533 385 204 0 0 0 7 88 68 0 0 0 0 0
Wind_Speed
nan nan nan nan nan nan nan nan nan nan nan nan nan nan nan nan nan nan nan nan nan nan nan nan nan nan nan nan nan 17 15 14 14 15 13 11 12 10 10 9 10 9 7 5 5 6 6 8 6 7 6 8 10 10 11 9 9 9 9 10 11 11 13 13 14 13 15 14 15 13 15 15 15 16 16 15 17 17 17 17 16 16 15 14 14 15
nan nan nan nan nan nan nan nan nan nan nan nan nan nan nan nan nan nan nan nan nan nan nan nan nan nan nan nan nan nan nan 17 13 15 14 14 12 11 11 10 11 9 7 8 5 6 5 6 6 8 7 9 10 11 12 10 10 9 9 11 12 11 15 15 15 14 14 14 16 16 18 17 17 17 16 17 18 19 19 19 18 17 16 16 16 16
nan nan nan nan nan nan nan nan nan nan nan nan nan nan nan nan nan nan nan nan nan nan nan nan nan nan nan nan nan nan nan nan 16 15 15 16 13 11 13 13 13 11 11 10 8 9 6 8 8 7 7 9 9 12 12 11 10 11 9 11 11 11 13 13 14 14 14 14 15 17 17 19 18 18 19 20 20 21 22 21 20 19 19 19 19 18
nan nan nan nan nan nan nan nan nan nan nan nan nan nan nan nan nan nan nan nan nan nan nan nan nan nan nan nan nan nan nan nan nan 19 19 21 17 15 15 16 17 14 13 13 12 12 9 8 7 7 7 9 10 10 10 11 12 12 11 11 12 12 11 13 13 14 14 16 17 17 18 19 20 18 18 17 17 20 20 20 20 22 22 21 20 21
nan nan nan nan nan nan nan nan nan nan nan nan nan nan nan nan nan nan nan nan nan nan nan nan nan nan nan nan nan nan nan nan nan 25 22 21 21 19 18 18 19 17 14 15 13 12 11 10 8 9 7 9 10 10 11 12 13 12 14 14 14 14 13 14 14 14 15 15 16 16 16 14 15 15 15 16 15 19 21 23 22 22 22 24 25 23
nan nan nan nan nan nan nan nan nan nan nan nan nan nan nan nan nan nan nan nan nan nan nan nan nan nan nan nan nan nan nan nan nan nan 27 22 21 23 23 21 20 20 17 19 17 16 15 13 10 10 8 9 10 10 11 13 14 14 15 15 16 14 14 16 16 17 17 18 19 18 17 16 16 16 16 nan nan 18 19 20 21 22 24 25 25 25
nan nan nan nan nan nan nan nan nan nan nan nan nan nan nan nan nan nan nan nan nan nan nan nan nan nan nan nan nan 21 nan nan nan nan 35 27 22 22 24 24 22 22 19 19 18 18 17 15 14 13 11 10 11 11 12 12 14 15 15 16 16 15 15 16 16 18 18 18 19 19 19 19 19 20 16 18 19 21 22 22 nan 22 22 25 25 25
nan nan nan nan nan nan nan nan nan nan nan nan nan nan nan nan nan nan nan nan nan nan nan nan nan 35 nan nan nan 25 30 28 27 nan 36 32 27 23 23 25 23 23 23 22 22 20 20 19 17 17 14 13 14 13 14 14 15 17 17 17 18 16 16 16 16 18 19 20 20 nan 19 20 20 20 19 nan 19 20 22 23 24 23 24 25 26 25
nan nan nan nan nan nan nan nan nan nan nan nan nan nan nan nan nan nan nan nan nan nan nan nan nan nan nan nan 25 31 31 23 24 nan nan nan 30 24 24 25 22 22 26 26 24 22 21 21 20 17 16 16 17 16 16 16 17 17 18 19 19 19 18 17 19 20 20 21 21 21 21 21 20 21 21 19 19 21 22 23 22 23 25 25 25 25
nan nan nan nan nan nan nan nan nan nan nan nan nan nan nan nan nan nan nan nan nan nan nan nan nan nan nan 26 29 29 nan nan nan nan nan nan 30 27 27 28 24 22 24 25 25 24 22 22 21 18 17 18 17 18 18 18 18 19 19 20 21 21 20 20 21 22 22 22 24 23 22 23 22 22 21 nan 20 22 23 nan 23 24 24 24 24 23
nan nan nan nan nan nan nan nan nan nan nan nan nan nan nan nan nan nan nan nan nan nan nan nan nan nan 27 26 32 30 nan 26 nan nan nan nan nan nan nan 33 29 24 21 19 21 24 23 24 24 21 20 20 19 18 20 21 21 21 22 22 23 22 21 21 23 25 25 24 25 nan 24 25 24 24 nan 23 21 22 22 23 23 26 26 nan 25 25
nan nan nan nan nan nan nan nan nan nan nan nan nan nan nan nan nan nan nan nan nan nan nan nan nan nan nan 26 23 nan 27 28 nan nan nan 28 nan nan nan nan 33 27 20 18 20 21 23 24 24 24 21 22 21 22 23 24 24 24 24 26 26 24 24 24 25 28 28 27 26 27 27 26 nan nan 25 nan 22 23 24 25 25 26 nan nan 25 27
nan nan nan nan nan nan nan nan nan nan nan nan nan nan nan nan nan nan nan nan nan nan nan nan nan nan nan nan 30 25 23 nan 33 nan nan nan nan nan nan nan nan 29 24 22 20 21 22 25 27 26 22 22 24 25 26 27 27 27 28 30 31 28 27 27 28 29 29 29 28 28 nan 28 nan nan 27 26 25 24 26 27 27 26 27 27 28 27
nan nan nan nan nan nan nan nan nan nan nan nan nan nan nan nan nan nan nan nan nan nan nan nan nan nan nan nan 30 27 25 30 34 nan nan nan nan nan nan nan 32 30 25 22 23 23 24 25 27 28 24 23 25 27 27 27 28 29 30 31 33 31 30 30 30 30 30 30 nan 29 28 29 29 nan 28 27 nan 26 28 30 nan nan 29 28 28 28
nan nan nan nan nan nan nan nan nan nan nan nan nan nan nan nan nan nan nan nan nan nan nan nan nan nan nan nan nan 24 24 23 23 nan nan nan nan nan nan nan 24 28 27 26 26 26 26 26 28 29 27 25 25 28 29 27 28 30 32 33 33 33 32 32 32 30 31 32 31 30 29 29 29 29 nan 28 29 nan 29 30 31 31 31 30 29 29
nan nan nan nan nan nan nan nan nan nan nan nan nan nan nan nan nan nan nan nan nan nan nan nan nan nan nan nan nan nan nan 26 29 nan nan nan 33 nan nan 26 24 30 32 nan 29 26 26 26 26 26 26 26 25 27 27 28 28 29 31 32 33 33 32 31 31 30 31 31 32 30 29 28 29 29 29 29 29 29 nan 30 nan 32 nan nan 30 29
nan nan nan nan nan nan nan nan nan nan nan nan nan nan nan nan nan nan nan nan nan nan nan nan nan nan nan nan nan nan nan 35 nan nan nan nan nan 40 42 41 nan 37 nan nan 31 28 27 25 24 24 25 26 27 28 28 27 28 30 31 31 30 28 27 28 29 29 30 30 31 nan 29 28 29 31 nan 30 30 nan nan 30 31 nan nan 30 31 nan
nan nan nan nan nan nan nan nan nan nan nan nan nan nan nan nan nan nan nan nan nan nan nan nan nan nan nan nan nan nan nan nan nan nan nan nan nan nan nan 44 nan nan 43 nan 35 33 31 27 25 23 23 27 29 29 29 29 28 29 30 30 30 27 27 27 29 30 29 30 31 31 31 29 31 nan 31 30 30 29 30 30 nan nan nan 30 30 31
nan nan nan nan nan nan nan nan nan nan nan nan nan nan nan nan nan nan nan nan nan nan nan nan nan nan nan nan nan nan nan nan nan nan nan nan nan nan nan nan 38 38 42 40 38 33 29 24 23 22 23 25 27 29 29 28 28 27 27 29 29 28 27 29 30 nan 30 30 29 30 31 31 31 32 31 30 30 32 nan nan nan nan 30 32 nan nan
nan nan nan nan nan nan nan nan nan nan nan nan nan nan nan nan nan nan nan nan nan nan nan nan nan nan nan nan nan nan nan nan nan nan nan nan 37 35 32 34 36 35 34 35 36 33 28 25 25 24 24 26 27 28 28 28 26 29 29 29 28 28 28 29 30 31 32 30 29 29 30 30 31 32 31 29 30 nan nan nan nan nan nan nan 31 33
nan nan nan nan nan nan nan nan nan nan nan nan nan nan nan nan nan nan nan nan nan nan nan nan nan nan nan nan nan nan nan nan nan nan nan nan nan nan 40 39 39 36 32 30 32 31 29 25 24 23 24 27 27 28 30 29 29 29 29 30 32 33 31 30 30 32 31 30 28 29 31 32 31 31 29 29 31 nan nan nan nan nan nan nan nan nan
nan nan nan nan nan nan nan nan nan nan nan nan nan nan nan nan nan nan nan nan nan nan nan nan nan nan nan nan nan nan nan nan nan nan nan nan nan nan 39 39 37 34 33 32 29 29 29 25 24 23 23 25 28 31 33 32 31 32 31 33 34 35 33 32 31 32 32 30 29 30 32 33 32 31 29 31 nan 34 nan nan nan nan 28 nan nan 30
nan nan nan nan nan nan nan nan nan nan nan nan nan nan nan nan nan nan nan nan nan nan nan nan nan nan nan 20 nan nan nan nan nan nan nan nan nan 46 43 39 37 39 37 34 28 26 27 26 25 26 28 30 33 34 35 35 34 34 34 35 36 38 36 33 34 34 34 33 30 31 33 34 nan 32 31 33 35 nan nan nan nan nan nan nan nan 28
27 nan nan nan nan nan nan nan nan nan nan nan nan nan nan nan nan nan nan nan nan nan nan nan nan nan nan nan nan nan nan nan nan nan nan nan nan nan 46 41 38 34 36 35 28 24 24 25 25 26 29 32 34 35 37 37 37 36 36 38 40 41 39 35 35 36 36 35 32 33 34 34 33 34 34 36 36 35 nan nan nan nan nan nan nan nan
nan nan nan nan nan nan nan nan nan nan nan nan nan nan nan nan nan nan nan nan nan nan nan nan nan nan nan 25 nan nan nan nan nan nan nan nan nan 45 44 41 38 35 34 31 27 23 24 25 26 28 32 35 36 37 39 41 41 39 38 39 41 42 39 35 34 36 38 37 35 34 35 35 34 34 34 36 36 35 35 nan nan 33 32 nan nan nan
nan 34 nan nan nan nan nan nan nan nan nan nan nan nan nan nan nan nan nan nan nan nan nan nan nan nan nan 31 nan nan nan nan nan nan nan nan nan nan 44 42 37 33 30 28 26 25 27 28 28 29 32 34 36 39 40 42 42 41 41 41 42 42 39 35 35 36 37 37 37 36 36 35 33 33 34 36 36 nan nan nan nan nan nan nan nan 33
nan nan nan nan nan nan nan nan nan nan nan nan nan nan nan nan nan nan nan nan nan nan nan nan nan nan nan nan nan nan nan nan nan nan nan nan nan nan nan 36 34 31 30 29 28 28 30 30 31 32 34 37 40 40 41 42 43 42 42 43 43 41 39 36 35 35 35 35 36 35 34 33 31 32 35 36 36 nan nan nan nan nan nan nan nan nan
nan nan nan nan nan nan 33 27 nan nan nan nan nan nan nan nan nan nan nan nan nan nan nan nan 35 nan nan nan nan nan nan nan nan nan nan nan 43 41 nan 31 30 27 27 28 27 27 29 32 34 35 35 38 42 43 42 42 43 43 44 46 45 42 40 36 35 35 35 35 34 33 31 29 30 32 35 36 35 35 35 nan nan nan nan nan nan nan
34 nan 34 nan 26 28 nan nan nan nan nan nan nan nan nan nan nan nan nan nan 31 nan nan nan nan nan nan nan nan nan 36 nan nan nan nan nan 38 36 31 29 31 33 30 29 27 29 29 31 34 38 40 41 43 44 44 43 43 42 42 45 44 43 42 39 38 36 36 35 34 31 28 28 30 33 35 35 36 35 35 34 34 34 nan nan nan 38
nan nan nan nan nan nan nan nan nan nan nan nan nan nan nan nan nan nan nan nan nan 32 nan 26 25 28 nan nan nan nan 39 nan nan nan nan nan nan 34 33 31 30 30 31 31 31 33 34 35 37 40 42 42 42 42 43 44 44 44 45 46 45 43 43 44 41 38 37 35 33 30 29 30 32 33 34 35 35 36 35 nan 34 34 36 37 39 41
nan 44 nan nan nan nan nan nan nan nan nan nan nan nan nan nan nan nan nan nan nan nan 33 34 33 nan 26 34 nan 39 46 nan 51 nan nan 49 46 nan nan nan nan 30 33 32 32 34 35 37 40 41 42 41 42 42 42 42 41 42 45 47 47 46 47 48 43 39 38 36 34 30 28 30 32 33 34 35 35 35 36 36 36 36 37 38 40 43
nan nan nan nan nan nan nan nan nan nan nan nan nan nan nan nan nan nan nan nan nan nan nan 36 34 28 29 33 38 42 nan nan nan nan nan nan nan 45 41 35 31 30 32 34 33 32 33 37 40 42 41 40 41 41 39 38 38 42 46 45 42 40 46 51 45 41 40 39 37 26 26 29 33 35 36 36 36 37 38 38 38 39 39 40 41 43
nan nan nan nan nan nan nan nan nan nan nan nan nan nan nan nan nan nan nan nan nan nan nan 31 31 33 34 39 45 44 51 nan nan 54 59 nan nan 43 36 29 27 30 31 30 34 34 35 35 36 39 42 40 40 41 39 42 50 49 48 50 48 46 45 47 48 49 50 47 33 20 25 33 35 36 37 36 37 38 39 40 40 39 40 41 42 44
nan nan nan nan nan nan nan nan nan nan nan nan 33 nan nan nan nan nan nan nan nan 39 33 nan 39 37 42 nan 47 48 55 nan nan nan nan nan 42 nan nan nan 28 nan nan 31 32 35 37 37 34 35 38 38 39 42 43 50 50 45 46 47 46 45 43 44 48 52 50 42 28 21 29 37 37 37 36 37 39 40 41 42 41 40 41 42 43 45
42 nan nan nan nan nan 44 42 nan nan nan nan nan nan nan nan nan nan nan nan nan 46 47 52 49 nan nan nan 43 45 nan nan nan 59 nan 51 43 40 38 35 34 34 34 32 29 nan 37 39 35 33 35 38 45 52 53 47 44 43 44 47 48 46 46 43 42 44 43 33 25 26 37 41 39 37 36 38 41 43 43 43 41 41 41 43 44 46
nan nan nan nan nan nan nan nan nan nan 46 nan nan nan nan nan nan 47 nan 40 44 nan 42 nan 50 51 47 46 46 nan nan nan 60 60 nan nan nan nan nan nan nan 37 nan nan nan nan nan 38 36 34 37 48 52 48 49 47 44 45 46 48 49 47 42 38 38 32 25 18 23 34 40 41 39 37 37 40 42 43 43 43 43 42 41 42 45 47
nan 46 nan nan nan nan nan nan nan 49 nan nan nan 49 nan nan 47 46 nan nan nan nan nan 43 49 49 43 41 47 52 nan nan nan nan nan nan nan nan nan nan nan nan nan 34 33 32 33 34 35 42 54 54 53 52 51 54 52 48 45 48 50 49 43 37 33 27 24 22 30 37 39 39 39 38 39 41 43 43 44 44 42 40 40 43 46 47
nan nan 50 nan 50 nan nan nan nan nan nan nan nan 44 nan nan nan 47 51 47 47 48 40 42 nan nan nan nan 51 nan nan nan nan nan nan 33 nan nan nan nan nan nan nan 38 37 36 36 39 50 53 50 50 47 48 51 52 49 43 43 50 53 50 42 31 31 31 28 30 34 37 37 38 38 39 39 41 42 44 44 44 42 41 43 47 49 48
37 nan nan nan 42 nan nan nan nan nan 49 51 49 47 47 nan 42 48 51 49 49 50 47 nan 47 nan 50 nan nan nan nan nan nan nan nan nan nan nan nan nan 45 41 38 36 42 52 54 55 55 56 54 50 51 51 49 40 33 32 40 44 39 33 33 32 32 32 31 32 35 36 37 39 40 40 42 42 43 43 43 43 42 42 46 49 49 47
nan 35 nan nan nan nan nan nan nan nan nan 42 44 43 nan nan nan 49 46 51 nan 55 51 57 58 55 nan nan nan nan nan nan nan nan nan nan nan nan 40 45 45 41 38 44 51 47 48 51 51 53 53 52 53 55 51 46 44 41 39 35 33 33 32 34 36 34 31 32 35 36 38 40 41 42 43 44 43 41 41 42 43 46 49 49 48 48
nan nan nan 30 nan nan nan nan nan nan 39 40 nan nan nan nan nan nan nan 48 53 59 63 nan 65 nan nan nan nan 62 57 nan nan nan nan nan 44 41 37 36 41 nan nan 49 45 47 47 47 51 53 54 52 54 51 49 45 48 45 41 38 41 42 38 35 35 32 31 34 37 39 40 41 43 44 44 44 42 41 43 47 49 49 49 48 48 49
nan nan nan nan nan nan nan nan nan nan 38 nan nan 46 43 nan nan nan 39 41 49 59 59 nan nan nan 64 63 64 62 nan nan nan 48 45 41 39 36 37 38 39 45 50 50 51 49 45 46 48 49 49 50 53 52 49 47 48 45 42 nan nan 39 36 36 34 33 35 37 39 40 41 42 43 44 44 43 43 45 48 48 48 50 51 52 52 48
nan nan nan nan nan nan nan nan nan nan 33 40 nan 42 43 42 34 39 42 43 44 47 52 55 57 55 55 nan 55 54 50 48 44 42 41 41 40 40 42 42 44 48 49 50 48 48 49 45 47 49 49 49 52 51 48 46 44 42 42 43 40 40 43 44 39 36 35 39 39 39 40 41 44 45 45 46 47 50 51 48 50 53 55 53 48 43
52 51 nan 44 45 39 nan 32 31 31 29 35 37 39 37 40 41 44 42 42 42 44 45 nan 48 47 47 46 44 nan 41 nan 41 41 40 nan 41 40 43 44 45 52 53 51 51 50 51 48 47 49 49 50 50 51 49 43 38 38 40 41 41 44 47 47 43 42 42 40 41 43 44 45 46 48 49 51 52 53 54 53 54 56 53 48 nan 43
39 41 39 41 38 41 37 37 40 40 nan 41 43 40 43 41 41 40 nan nan nan nan 43 nan 45 nan 42 nan nan 39 39 38 39 nan 39 41 42 44 46 46 45 45 47 47 47 49 53 54 53 52 51 50 51 52 49 40 38 42 45 41 39 43 46 45 44 43 41 42 45 48 48 50 51 52 53 54 56 56 57 58 59 57 52 49 48 50
31 32 33 37 38 40 46 49 41 nan nan nan nan 48 48 48 47 44 43 44 nan nan nan nan 43 nan nan nan nan nan 39 40 nan nan 42 44 45 42 41 43 46 47 47 46 45 44 50 54 55 55 53 48 47 48 44 39 40 49 46 41 38 42 44 44 44 44 43 44 46 48 51 54 54 54 56 56 57 59 59 60 60 57 54 56 55 53
46 48 45 43 32 40 41 43 43 44 nan nan nan nan nan nan 46 45 44 44 42 42 nan nan nan nan nan 48 47 45 44 45 48 46 45 44 44 41 39 39 39 43 47 47 47 49 49 51 54 53 52 50 46 46 44 43 44 49 46 43 41 42 41 41 41 42 44 45 46 48 50 53 53 54 55 57 58 59 59 58 nan nan 55 55 55 54
42 44 48 45 44 43 35 35 nan nan nan 48 nan nan nan nan nan 46 44 43 40 38 37 39 nan nan 43 44 43 44 44 44 45 42 41 41 41 41 40 39 39 41 43 45 47 48 49 51 52 53 53 51 44 42 41 43 46 46 43 42 43 43 42 39 38 40 43 47 49 50 51 51 53 55 56 55 55 54 55 nan 54 57 58 58 55 54
43 45 46 nan nan nan 46 nan nan nan nan nan nan nan nan nan nan nan nan nan 42 42 nan nan 41 41 41 42 43 43 44 41 42 42 41 39 39 40 40 41 41 42 42 45 45 48 47 45 48 51 52 49 45 42 42 43 44 48 47 47 45 44 43 42 40 42 45 47 49 51 49 51 54 54 54 55 54 54 53 nan 52 nan nan nan nan nan
49 52 nan nan nan nan nan nan 41 41 nan nan nan nan nan nan nan nan nan nan nan nan nan nan nan 40 40 40 43 43 42 40 39 40 40 40 39 38 40 41 42 43 43 43 45 48 49 50 52 52 51 47 46 47 47 48 45 48 49 46 45 42 41 40 40 42 45 48 51 52 52 53 54 53 54 55 56 nan nan nan nan nan nan nan nan nan
51 48 51 nan nan nan nan 50 49 nan 46 nan nan nan nan nan nan 44 nan nan nan nan nan nan nan nan 35 34 38 41 40 39 39 41 41 40 39 38 39 40 41 42 43 42 44 45 48 50 51 54 53 50 49 52 53 52 49 44 44 41 41 41 42 44 45 45 47 50 53 54 53 53 53 53 55 nan nan nan nan nan nan nan nan nan nan nan
Wind_Direction
nan nan nan nan nan nan nan nan nan nan nan nan nan nan nan nan nan nan nan nan nan nan nan nan nan nan nan nan nan 323 319 316 318 312 315 311 314 316 309 323 331 337 355 355 338 344 340 339 332 329 321 320 324 329 331 334 343 343 351 354 3 1 352 351 358 357 354 349 348 346 351 354 356 352 353 350 350 353 359 359 357 354 353 349 348 350
nan nan nan nan nan nan nan nan nan nan nan nan nan nan nan nan nan nan nan nan nan nan nan nan nan nan nan nan nan nan nan 320 320 316 320 316 316 314 318 305 317 323 311 326 326 336 322 339 334 333 330 334 332 337 334 342 351 355 1 2 5 351 352 356 358 355 353 355 353 351 356 351 354 356 348 351 346 351 355 357 353 349 342 345 347 350
nan nan nan nan nan nan nan nan nan nan nan nan nan nan nan nan nan nan nan nan nan nan nan nan nan nan nan nan nan nan nan nan 320 326 320 317 315 301 316 307 307 311 314 320 324 325 326 338 340 340 340 341 339 339 342 347 349 359 4 2 360 356 352 354 350 350 356 358 356 354 358 355 358 359 353 347 346 345 350 350 349 339 342 343 348 348
nan nan nan nan nan nan nan nan nan nan nan nan nan nan nan nan nan nan nan nan nan nan nan nan nan nan nan nan nan nan nan nan nan 324 322 318 315 307 316 311 311 310 309 321 322 328 338 343 342 338 336 339 333 336 341 345 347 353 356 352 353 357 351 354 357 356 358 357 0 0 3 6 354 353 350 343 334 337 337 340 334 339 343 343 339 344
nan nan nan nan nan nan nan nan nan nan nan nan nan nan nan nan nan nan nan nan nan nan nan nan nan nan nan nan nan nan nan nan nan 316 318 318 313 310 305 300 308 310 307 312 318 325 333 339 333 331 326 326 327 332 338 342 343 348 347 345 350 350 347 349 352 352 355 356 359 4 6 354 351 349 336 331 332 329 331 330 335 342 339 335 337 334
nan nan nan nan nan nan nan nan nan nan nan nan nan nan nan nan nan nan nan nan nan nan nan nan nan nan nan nan nan nan nan nan nan nan 313 315 312 308 312 309 308 310 310 313 321 328 330 332 317 323 323 324 321 329 335 335 339 336 337 337 343 339 338 341 341 348 346 350 352 350 350 346 343 344 336 nan nan 334 331 333 333 331 330 330 328 330
nan nan nan nan nan nan nan nan nan nan nan nan nan nan nan nan nan nan nan nan nan nan nan nan nan nan nan nan nan 312 nan nan nan nan 313 319 315 313 313 311 312 311 309 312 317 321 324 327 322 327 328 327 325 327 325 323 328 328 328 329 330 328 329 331 334 339 336 337 337 338 337 335 337 332 342 343 338 336 338 330 nan 331 328 323 322 325
nan nan nan nan nan nan nan nan nan nan nan nan nan nan nan nan nan nan nan nan nan nan nan nan nan 299 nan nan nan 311 305 301 304 nan 320 321 318 312 311 310 312 314 315 314 317 321 321 325 326 332 333 325 328 319 317 316 317 320 320 319 318 320 321 325 327 328 327 326 323 nan 318 322 321 323 333 nan 335 333 329 327 330 330 326 323 323 326
nan nan nan nan nan nan nan nan nan nan nan nan nan nan nan nan nan nan nan nan nan nan nan nan nan nan nan nan 297 297 297 306 319 nan nan nan 317 313 307 303 308 314 318 315 314 319 315 318 321 328 327 323 322 315 316 312 312 310 309 308 310 314 318 318 320 316 316 315 312 315 316 314 315 320 322 321 318 323 323 321 324 323 323 321 322 322
nan nan nan nan nan nan nan nan nan nan nan nan nan nan nan nan nan nan nan nan nan nan nan nan nan nan nan 285 288 286 nan nan nan nan nan nan 316 313 305 303 304 307 314 313 314 314 313 311 315 322 317 316 318 315 311 307 303 304 303 303 305 309 309 312 311 308 309 309 308 309 312 314 318 314 312 nan 319 318 319 nan 318 317 314 311 313 316
nan nan nan nan nan nan nan nan nan nan nan nan nan nan nan nan nan nan nan nan nan nan nan nan nan nan 268 278 289 287 nan 333 nan nan nan nan nan nan nan 306 306 304 313 306 309 314 315 313 313 316 313 313 309 308 306 305 304 304 301 301 302 304 304 305 307 305 307 308 308 nan 316 315 315 312 nan 314 318 319 317 319 320 314 314 nan 313 314
nan nan nan nan nan nan nan nan nan nan nan nan nan nan nan nan nan nan nan nan nan nan nan nan nan nan nan 267 285 nan 335 335 nan nan nan 318 nan nan nan nan 310 310 314 310 313 320 319 314 311 310 307 308 303 300 301 301 300 301 298 298 299 299 301 302 303 304 305 306 307 309 309 310 nan nan 307 nan 313 318 316 317 315 315 nan nan 313 312
nan nan nan nan nan nan nan nan nan nan nan nan nan nan nan nan nan nan nan nan nan nan nan nan nan nan nan nan 320 340 333 nan 318 nan nan nan nan nan nan nan nan 306 313 313 319 323 321 320 314 313 305 302 299 299 299 299 298 297 295 298 299 300 300 302 301 304 305 305 304 305 nan 302 nan nan 305 306 309 314 313 315 313 313 314 312 310 311
nan nan nan nan nan nan nan nan nan nan nan nan nan nan nan nan nan nan nan nan nan nan nan nan nan nan nan nan 306 321 332 319 323 nan nan nan nan nan nan nan 299 307 318 320 321 321 320 317 312 312 309 307 301 301 300 298 296 294 294 296 298 301 301 300 299 302 304 305 nan 301 302 303 301 nan 302 305 nan 311 314 314 nan nan 315 312 312 312
nan nan nan nan nan nan nan nan nan nan nan nan nan nan nan nan nan nan nan nan nan nan nan nan nan nan nan nan nan 317 312 303 304 nan nan nan nan nan nan nan 301 312 318 318 316 317 322 321 311 309 310 310 307 305 303 300 298 296 297 299 301 302 303 301 301 300 303 301 300 298 299 301 299 299 nan 303 305 nan 312 315 315 317 316 313 315 313
nan nan nan nan nan nan nan nan nan nan nan nan nan nan nan nan nan nan nan nan nan nan nan nan nan nan nan nan nan nan nan 298 289 nan nan nan 307 nan nan 312 304 309 311 nan 313 316 322 319 311 308 309 311 307 307 304 304 302 302 304 306 309 310 307 304 302 302 305 303 300 298 300 303 302 298 299 301 304 308 nan 316 nan 317 nan nan 316 316
nan nan nan nan nan nan nan nan nan nan nan nan nan nan nan nan nan nan nan nan nan nan nan nan nan nan nan nan nan nan nan 301 nan nan nan nan nan 302 309 313 nan 309 nan nan 315 314 322 319 315 314 313 312 310 308 310 309 309 310 308 310 310 310 305 306 306 307 308 307 304 nan 302 302 301 302 nan 306 309 nan nan 317 316 nan nan 317 316 nan
nan nan nan nan nan nan nan nan nan nan nan nan nan nan nan nan nan nan nan nan nan nan nan nan nan nan nan nan nan nan nan nan nan nan nan nan nan nan nan 311 nan nan 313 nan 316 316 323 322 319 313 311 313 313 314 313 314 312 311 311 312 312 311 310 308 307 309 309 310 307 305 304 303 305 nan 304 307 313 314 314 316 nan nan nan 316 315 315
nan nan nan nan nan nan nan nan nan nan nan nan nan nan nan nan nan nan nan nan nan nan nan nan nan nan nan nan nan nan nan nan nan nan nan nan nan nan nan nan 316 309 307 310 315 314 319 318 315 310 310 312 314 316 315 313 312 309 308 311 313 317 313 311 309 nan 307 308 306 306 307 306 305 306 306 309 309 312 nan nan nan nan 322 318 nan nan
nan nan nan nan nan nan nan nan nan nan nan nan nan nan nan nan nan nan nan nan nan nan nan nan nan nan nan nan nan nan nan nan nan nan nan nan 301 303 300 303 311 312 314 315 314 313 317 321 323 319 312 314 316 314 312 312 310 312 311 311 313 313 312 309 307 308 308 310 308 308 308 308 308 306 306 308 310 nan nan nan nan nan nan nan 316 316
nan nan nan nan nan nan nan nan nan nan nan nan nan nan nan nan nan nan nan nan nan nan nan nan nan nan nan nan nan nan nan nan nan nan nan nan nan nan 306 309 311 313 320 321 316 313 314 318 322 318 313 315 313 312 311 312 316 314 311 314 315 316 316 314 310 308 310 311 312 310 309 310 311 309 307 309 315 nan nan nan nan nan nan nan nan nan
nan nan nan nan nan nan nan nan nan nan nan nan nan nan nan nan nan nan nan nan nan nan nan nan nan nan nan nan nan nan nan nan nan nan nan nan nan nan 299 301 300 305 317 319 316 315 313 312 315 313 308 309 310 313 315 313 313 314 316 316 314 315 316 315 312 309 311 312 312 308 308 310 312 311 309 316 nan 321 nan nan nan nan 318 nan nan 319
nan nan nan nan nan nan nan nan nan nan nan nan nan nan nan nan nan nan nan nan nan nan nan nan nan nan nan 249 nan nan nan nan nan nan nan nan nan 286 299 301 304 314 315 314 315 315 317 318 318 319 317 316 318 318 316 313 316 316 317 316 315 316 318 316 314 312 312 311 307 307 308 312 nan 315 315 321 324 nan nan nan nan nan nan nan nan 319
188 nan nan nan nan nan nan nan nan nan nan nan nan nan nan nan nan nan nan nan nan nan nan nan nan nan nan nan nan nan nan nan nan nan nan nan nan nan 297 301 304 306 308 308 311 316 316 317 316 312 314 315 315 315 318 318 318 315 316 317 315 316 317 317 315 314 310 306 304 306 310 316 319 318 318 324 325 326 nan nan nan nan nan nan nan nan
nan nan nan nan nan nan nan nan nan nan nan nan nan nan nan nan nan nan nan nan nan nan nan nan nan nan nan 256 nan nan nan nan nan nan nan nan nan 279 288 301 303 307 306 305 308 311 308 305 312 316 317 320 320 319 319 317 318 317 317 317 315 313 316 318 314 312 309 305 306 308 313 318 318 316 317 321 323 325 325 nan nan 314 321 nan nan nan
nan 198 nan nan nan nan nan nan nan nan nan nan nan nan nan nan nan nan nan nan nan nan nan nan nan nan nan 256 nan nan nan nan nan nan nan nan nan nan 284 293 303 302 302 308 311 312 316 319 317 321 321 319 319 319 320 319 318 318 316 316 312 311 316 316 312 311 309 306 306 309 315 318 315 312 313 318 321 nan nan nan nan nan nan nan nan 320
nan nan nan nan nan nan nan nan nan nan nan nan nan nan nan nan nan nan nan nan nan nan nan nan nan nan nan nan nan nan nan nan nan nan nan nan nan nan nan 297 305 305 301 309 318 322 320 316 321 325 325 322 322 322 321 321 319 317 315 312 310 310 312 310 310 308 306 304 306 310 315 314 312 308 310 315 318 nan nan nan nan nan nan nan nan nan
nan nan nan nan nan nan 229 225 nan nan nan nan nan nan nan nan nan nan nan nan nan nan nan nan 276 nan nan nan nan nan nan nan nan nan nan nan 284 285 nan 296 306 304 301 305 304 315 322 324 322 322 323 325 326 324 322 320 316 316 314 311 308 307 308 305 305 304 304 304 306 309 312 310 308 308 310 313 317 318 320 nan nan nan nan nan nan nan
213 nan 219 nan 228 220 nan nan nan nan nan nan nan nan nan nan nan nan nan nan 260 nan nan nan nan nan nan nan nan nan 286 nan nan nan nan nan 281 280 287 296 301 308 303 305 306 311 321 324 323 324 324 326 325 324 321 315 313 312 310 307 302 302 306 300 300 303 304 304 304 305 306 307 310 309 310 312 313 316 318 317 315 315 nan nan nan 322
nan nan nan nan nan nan nan nan nan nan nan nan nan nan nan nan nan nan nan nan nan 244 nan 262 279 293 nan nan nan nan 283 nan nan nan nan nan nan 283 289 293 297 300 302 308 314 315 319 325 326 324 323 324 325 323 318 314 313 314 309 302 295 295 295 294 297 299 301 301 301 304 304 307 309 310 311 311 313 315 317 nan 316 319 321 322 324 325
nan 206 nan nan nan nan nan nan nan nan nan nan nan nan nan nan nan nan nan nan nan nan 246 260 261 nan 271 289 nan 276 279 nan 284 nan nan 284 281 nan nan nan nan 295 298 305 306 311 314 319 323 323 322 323 324 321 316 314 311 306 301 296 295 293 291 290 294 296 297 298 296 291 298 307 309 310 312 312 314 316 317 318 319 320 321 323 324 326
nan nan nan nan nan nan nan nan nan nan nan nan nan nan nan nan nan nan nan nan nan nan nan 259 256 252 258 268 269 272 nan nan nan nan nan nan nan 277 276 274 274 276 279 289 300 301 308 312 314 318 321 322 320 315 311 307 296 283 276 277 277 280 285 287 289 291 290 285 268 267 293 309 308 310 313 313 318 320 319 319 319 319 320 322 325 327
nan nan nan nan nan nan nan nan nan nan nan nan nan nan nan nan nan nan nan nan nan nan nan 266 264 265 265 264 264 265 270 nan nan 265 267 nan nan 281 278 271 269 275 280 282 288 300 304 310 311 316 319 319 316 310 305 291 280 286 296 300 304 300 289 285 282 274 272 274 272 276 303 316 312 312 316 319 320 319 317 318 319 319 320 324 327 327
nan nan nan nan nan nan nan nan nan nan nan nan 231 nan nan nan nan nan nan nan nan 237 242 nan 255 257 258 nan 261 262 265 nan nan nan nan nan 279 nan nan nan 269 nan nan 281 285 298 311 314 316 314 315 315 306 296 287 288 296 303 305 302 300 299 294 283 277 277 277 278 273 283 316 317 314 316 319 319 317 317 318 318 318 319 322 324 325 327
218 nan nan nan nan nan 206 206 nan nan nan nan nan nan nan nan nan nan nan nan nan 238 238 242 239 nan nan nan 259 261 nan nan nan 270 nan 277 278 277 277 279 282 286 290 291 294 nan 303 314 317 310 301 297 290 287 291 294 296 300 298 294 291 286 284 284 284 278 281 285 292 309 315 315 316 319 318 317 317 317 318 317 316 319 323 326 326 326
nan nan nan nan nan nan nan nan nan nan 208 nan nan nan nan nan nan 216 nan 230 235 nan 245 nan 243 245 245 247 253 nan nan nan 257 260 nan nan nan nan nan nan nan 287 nan nan nan nan nan 302 306 303 289 278 281 288 293 294 291 286 280 275 276 275 274 275 276 280 279 291 309 316 315 314 316 317 315 316 316 316 317 316 317 322 325 326 325 322
nan 211 nan nan nan nan nan nan nan 214 nan nan nan 213 nan nan 224 224 nan nan nan nan nan 250 249 245 241 242 243 243 nan nan nan nan nan nan nan nan nan nan nan nan nan 286 292 289 287 288 294 282 279 285 291 293 291 288 285 283 282 282 287 292 293 292 298 308 311 311 317 318 315 314 316 315 316 317 316 317 318 317 318 322 324 324 324 321
nan nan 210 nan 215 nan nan nan nan nan nan nan nan 224 nan nan nan 231 230 224 223 227 241 250 nan nan nan nan 250 nan nan nan nan nan nan 260 nan nan nan nan nan nan nan 278 277 271 263 264 264 269 279 283 285 281 280 279 281 286 289 289 291 295 294 296 305 311 307 306 314 317 314 315 317 317 318 318 319 320 318 317 318 320 319 321 321 319
231 nan nan nan 222 nan nan nan nan nan 230 235 233 226 228 nan 235 236 231 224 224 228 229 nan 244 nan 256 nan nan nan nan nan nan nan nan nan nan nan nan nan 279 276 275 274 266 265 269 277 282 286 286 288 287 284 279 270 266 281 290 283 281 287 299 307 311 309 306 311 316 316 314 316 317 318 321 322 323 321 319 319 318 315 316 317 317 317
nan 235 nan nan nan nan nan nan nan nan nan 240 241 239 nan nan nan 238 232 230 nan 226 234 240 239 245 nan nan nan nan nan nan nan nan nan nan nan nan 273 280 282 282 276 270 271 279 281 285 286 287 290 294 297 299 301 295 287 286 287 291 299 309 313 316 318 311 307 313 316 316 315 316 318 319 322 324 323 320 320 317 314 312 311 312 314 316
nan nan nan 230 nan nan nan nan nan nan 239 239 nan nan nan nan nan nan nan 238 230 230 233 nan 239 nan nan nan nan 256 258 nan nan nan nan nan 266 264 266 270 280 nan nan 276 281 281 285 289 292 296 301 304 304 303 299 295 296 301 304 304 306 314 314 314 312 307 305 311 313 314 316 315 315 319 321 320 321 320 316 313 310 306 306 309 313 311
nan nan nan nan nan nan nan nan nan nan 240 nan nan 232 236 nan nan nan 244 240 235 231 233 nan nan nan 248 250 249 253 nan nan nan 266 267 266 269 269 271 272 273 272 274 285 289 290 290 293 293 296 298 300 304 307 307 304 303 304 304 nan nan 308 305 306 304 300 307 312 312 314 312 310 312 316 315 315 313 312 311 309 306 305 306 306 307 308
nan nan nan nan nan nan nan nan nan nan 232 235 nan 235 237 249 251 253 250 243 239 237 239 241 245 245 249 nan 248 250 255 259 260 262 266 265 265 270 274 275 275 279 283 286 290 293 294 292 294 296 301 303 304 306 306 301 296 296 297 302 300 297 299 306 310 310 311 308 309 309 308 307 309 309 308 306 305 304 304 306 306 305 305 306 306 309
223 230 nan 228 232 238 nan 232 233 232 225 240 244 246 245 251 251 247 249 249 244 247 249 nan 250 253 252 252 252 nan 257 nan 259 259 264 nan 272 278 278 279 283 286 289 292 294 296 295 294 296 298 301 303 305 303 300 295 292 290 296 294 287 288 291 293 293 292 288 287 291 295 294 296 298 298 300 301 300 300 302 304 304 303 302 302 nan 313
217 230 230 231 226 232 237 242 243 234 nan 239 249 249 252 253 253 256 nan nan nan nan 254 nan 254 nan 254 nan nan 254 256 257 262 nan 269 271 272 278 284 285 284 284 288 292 294 297 297 297 300 300 302 305 305 302 300 290 283 290 292 287 285 289 290 289 287 283 280 283 292 297 297 296 297 298 299 300 301 302 305 306 306 307 308 311 310 309
234 238 231 229 226 226 234 235 240 nan nan nan nan 249 254 252 249 249 252 252 nan nan nan nan 257 nan nan nan nan nan 262 266 nan nan 271 275 277 277 278 281 283 285 287 289 290 292 293 296 299 300 302 306 305 301 293 284 285 295 296 289 288 290 289 287 284 279 279 285 294 300 301 299 300 301 302 302 303 304 306 306 308 310 311 310 310 309
235 238 241 240 231 227 226 218 228 241 nan nan nan nan nan nan 249 247 248 253 255 255 nan nan nan nan nan 256 257 260 262 266 269 272 273 273 272 273 275 277 281 286 289 290 291 293 293 295 298 301 304 305 305 299 289 283 290 300 300 291 290 288 285 282 281 280 284 291 297 299 299 299 301 302 301 300 301 302 303 305 nan nan 305 304 305 306
234 237 243 241 244 249 251 238 nan nan nan 249 nan nan nan nan nan 245 246 246 249 251 255 257 nan nan 259 265 269 272 273 274 276 276 275 276 279 279 279 278 279 282 287 291 291 294 295 297 299 299 301 302 298 294 289 285 288 293 288 282 280 282 282 283 285 286 289 293 297 300 300 299 301 300 299 300 299 300 302 nan 299 301 301 301 304 306
247 246 247 nan nan nan 249 nan nan nan nan nan nan nan nan nan nan nan nan nan 246 248 nan nan 253 254 257 265 269 271 271 271 278 281 280 282 281 282 284 285 284 286 287 287 289 290 291 292 293 295 296 297 296 291 286 286 290 292 285 279 282 286 286 288 285 284 287 291 296 298 298 297 297 298 298 296 293 292 293 nan 298 nan nan nan nan nan
247 251 nan nan nan nan nan nan 256 253 nan nan nan nan nan nan nan nan nan nan nan nan nan nan nan 254 257 264 268 267 270 269 272 279 281 283 285 287 289 289 289 289 289 290 292 294 294 295 294 293 292 290 287 283 278 276 278 282 277 277 283 286 287 287 283 278 282 289 294 294 292 292 295 297 296 295 295 nan nan nan nan nan nan nan nan nan
248 252 254 nan nan nan nan 259 261 nan 263 nan nan nan nan nan nan 258 nan nan nan nan nan nan nan nan 257 258 269 273 273 274 275 279 283 286 288 289 288 289 289 289 290 290 290 291 292 292 291 291 291 292 291 286 282 279 278 272 269 274 286 289 288 289 287 283 286 293 296 295 296 298 298 299 300 nan nan nan nan nan nan nan nan nan nan nan